Date String (YYYY-MM-DD hh:mm:ss) UTC,Instrument flags,Ambient pressure (hPa),Sample flow (lpm),Bypass flow (lpm),Sample temperature (°C),Ambient temperature (°C),ASC tube jacket temperature (°C),LED temperature (°C),Box temperature (°C),Sample RH (%),Span deviation,Mass concentration (μg/m³),Mass concentration (μg/m³),Mass concentration (μg/m³)
DateTimeUTC,F1_M11,P_M11,Q1_M11,Q2_M11,T1_M11,T2_M11,T3_M11,T4_M11,T5_M11,U1_M11,ZSPAN_M11,X2_M11,X0_M11,X1_M11
2022-06-24 21:00:00,,0825.6,5.01,0.00,29.1,28.2,00.0,37.8,31.1,19.9,0000.0,0001.53,0002.76,0001.04
2022-06-24 21:01:00,,0825.5,4.99,0.00,29.1,27.7,00.0,37.7,31.0,20.2,0000.0,0001.49,0002.79,0001.04
2022-06-24 21:02:00,,0825.5,5.00,0.00,29.0,26.9,00.0,37.7,30.7,20.1,0000.0,0001.43,0002.65,0001.03
2022-06-24 21:03:00,,0825.6,5.00,0.00,28.9,26.8,00.0,37.7,30.7,19.5,0000.0,0001.44,0002.68,0001.03
2022-06-24 21:04:00,,0825.6,5.00,0.00,28.9,26.8,00.0,37.6,30.6,19.8,0000.0,0001.48,0002.91,0001.03
2022-06-24 21:05:00,,0825.6,5.01,0.00,28.8,26.9,00.0,37.6,30.7,20.2,0000.0,0001.48,0002.99,0001.04
2022-06-24 21:06:00,,0825.6,5.00,0.00,28.8,27.1,00.0,37.6,30.7,20.4,0000.0,0001.46,0002.93,0001.05
2022-06-24 21:07:00,,0825.6,4.99,0.00,28.9,27.3,00.0,37.6,30.7,20.6,0000.0,0001.43,0002.84,0001.05
2022-06-24 21:08:00,,0825.6,5.01,0.00,28.9,27.4,00.0,37.7,30.8,20.1,0000.0,0001.48,0002.83,0001.06
2022-06-24 21:09:00,,0825.6,4.99,0.00,28.9,27.6,00.0,37.7,30.8,20.2,0000.0,0001.49,0002.76,0001.09
2022-06-24 21:10:00,,0825.6,5.00,0.00,28.9,27.8,00.0,37.7,30.9,20.1,0000.0,0001.49,0002.72,0001.09
2022-06-24 21:11:00,,0825.6,5.00,0.00,29.0,27.9,00.0,37.7,30.9,20.3,0000.0,0001.49,0003.02,0001.08
2022-06-24 21:12:00,,0825.5,5.01,0.00,29.0,28.0,00.0,37.7,31.0,20.6,0000.0,0001.47,0004.19,0001.08
2022-06-24 21:13:00,,0825.6,4.99,0.00,29.0,28.1,00.0,37.7,31.0,20.5,0000.0,0001.49,0004.22,0001.08
2022-06-24 21:14:00,,0825.7,4.99,0.00,29.1,28.2,00.0,37.8,31.1,20.6,0000.0,0001.52,0004.29,0001.09
2022-06-24 21:15:00,,0825.7,5.00,0.00,29.1,28.0,00.0,37.8,31.1,20.4,0000.0,0001.53,0004.32,0001.09
2022-06-24 21:16:00,,0825.7,5.00,0.00,29.0,27.2,00.0,37.7,30.9,20.5,0000.0,0001.55,0004.33,0001.09
2022-06-24 21:17:00,,0825.8,5.01,0.00,29.0,26.7,00.0,37.7,30.7,20.5,0000.0,0001.57,0004.60,0001.09
2022-06-24 21:18:00,,0826.0,5.01,0.00,28.9,26.7,00.0,37.6,30.7,20.7,0000.0,0001.56,0005.66,0001.09
2022-06-24 21:19:00,,0825.8,5.00,0.00,28.9,26.8,00.0,37.6,30.7,20.8,0000.0,0001.52,0005.92,0001.09
2022-06-24 21:20:00,,0825.8,5.00,0.00,28.9,27.0,00.0,37.6,30.7,20.8,0000.0,0001.52,0006.25,0001.08
2022-06-24 21:21:00,,0826.0,4.98,0.00,28.9,27.2,00.0,37.6,30.7,20.9,0000.0,0001.58,0006.42,0001.08
2022-06-24 21:22:00,,0826.0,5.00,0.00,28.9,27.4,00.0,37.7,30.8,21.0,0000.0,0001.63,0006.20,0001.09
2022-06-24 21:23:00,,0826.0,5.01,0.00,28.9,27.5,00.0,37.7,30.8,21.3,0000.0,0001.68,0004.98,0001.09
2022-06-24 21:24:00,,0826.2,5.00,0.00,28.9,27.7,00.0,37.7,30.9,21.7,0000.0,0001.74,0005.44,0001.10
2022-06-24 21:25:00,,0826.2,5.00,0.00,29.0,27.8,00.0,37.7,31.0,21.8,0000.0,0001.78,0005.58,0001.09
2022-06-24 21:26:00,,0826.1,5.00,0.00,29.0,28.0,00.0,37.7,31.0,21.8,0000.0,0001.80,0005.76,0001.09
2022-06-24 21:27:00,,0826.1,5.00,0.00,29.0,28.1,00.0,37.7,31.1,22.2,0000.0,0001.80,0006.14,0001.09
2022-06-24 21:28:00,,0826.2,4.99,0.00,29.1,28.2,00.0,37.8,31.1,22.3,0000.0,0001.82,0006.34,0001.09
2022-06-24 21:29:00,,0826.1,5.00,0.00,29.1,28.3,00.0,37.8,31.1,22.1,0000.0,0001.84,0005.68,0001.09
2022-06-24 21:30:00,,0826.2,4.99,0.00,29.1,28.4,00.0,37.8,31.2,22.0,0000.0,0001.89,0006.28,0001.07
2022-06-24 21:31:00,,0826.2,5.00,0.00,29.2,28.1,00.0,37.8,31.1,22.2,0000.0,0001.91,0006.84,0001.07
2022-06-24 21:32:00,,0826.3,5.02,0.00,29.1,27.5,00.0,37.8,31.0,22.5,0000.0,0001.90,0007.76,0001.07
2022-06-24 21:33:00,,0826.4,5.01,0.00,29.1,27.3,00.0,37.8,30.9,22.9,0000.0,0001.90,0008.32,0001.07
2022-06-24 21:34:00,,0826.4,4.99,0.00,29.1,27.3,00.0,37.8,30.9,23.3,0000.0,0001.95,0008.50,0001.08
2022-06-24 21:35:00,,0826.4,5.00,0.00,29.0,27.4,00.0,37.8,30.9,23.6,0000.0,0001.98,0009.56,0001.08
2022-06-24 21:36:00,,0826.5,5.01,0.00,29.0,27.6,00.0,37.8,31.0,23.8,0000.0,0002.02,0010.88,0001.10
2022-06-24 21:37:00,,0826.4,5.00,0.00,29.1,27.7,00.0,37.8,31.0,23.7,0000.0,0002.03,0010.88,0001.10
2022-06-24 21:38:00,,0826.4,4.99,0.00,29.1,27.8,00.0,37.8,31.0,24.0,0000.0,0002.02,0010.66,0001.10
2022-06-24 21:39:00,,0826.4,4.99,0.00,29.1,27.9,00.0,37.8,31.1,24.3,0000.0,0002.06,0010.80,0001.11
2022-06-24 21:40:00,,0826.3,5.00,0.00,29.1,28.1,00.0,37.9,31.1,24.5,0000.0,0002.15,0011.16,0001.12
2022-06-24 21:41:00,,0826.2,5.00,0.00,29.2,28.2,00.0,37.9,31.2,24.8,0000.0,0002.18,0011.16,0001.14
2022-06-24 21:42:00,,0826.1,5.00,0.00,29.2,28.3,00.0,37.9,31.2,24.9,0000.0,0002.31,0011.10,0001.15
2022-06-24 21:43:00,,0826.2,5.01,0.00,29.2,28.2,00.0,37.9,31.2,24.8,0000.0,0002.38,0010.62,0001.15
2022-06-24 21:44:00,,0826.2,5.00,0.00,29.2,27.5,00.0,37.9,31.0,24.5,0000.0,0002.40,0010.15,0001.16
2022-06-24 21:45:00,,0826.2,4.99,0.00,29.1,26.9,00.0,37.8,30.9,24.7,0000.0,0002.38,0010.24,0001.16
2022-06-24 21:46:00,,0826.1,4.99,0.00,29.1,26.8,00.0,37.8,30.8,24.5,0000.0,0002.41,0009.61,0001.17
2022-06-24 21:47:00,,0826.1,5.00,0.00,29.0,26.8,00.0,37.8,30.7,25.4,0000.0,0002.47,0009.36,0001.17
2022-06-24 21:48:00,,0826.0,5.01,0.00,29.0,27.0,00.0,37.8,30.8,25.2,0000.0,0002.50,0009.47,0001.17
2022-06-24 21:49:00,,0826.0,5.01,0.00,28.9,27.1,00.0,37.8,30.8,25.2,0000.0,0002.58,0009.65,0001.18
2022-06-24 21:50:00,,0826.0,5.00,0.00,28.9,27.3,00.0,37.8,30.8,24.8,0000.0,0002.57,0009.97,0001.17
2022-06-24 21:51:00,,0826.0,4.99,0.00,29.0,27.5,00.0,37.8,30.9,24.5,0000.0,0002.50,0009.56,0001.17
2022-06-24 21:52:00,,0825.9,5.00,0.00,29.0,27.7,00.0,37.8,30.9,24.5,0000.0,0002.48,0009.93,0001.15
2022-06-24 21:53:00,,0825.9,4.99,0.00,29.0,27.8,00.0,37.8,31.0,25.3,0000.0,0002.38,0010.17,0001.15
2022-06-24 21:54:00,,0825.9,5.01,0.00,29.0,27.9,00.0,37.8,31.0,26.1,0000.0,0002.35,0010.67,0001.14
2022-06-24 21:55:00,,0825.9,4.99,0.00,29.1,28.1,00.0,37.8,31.1,26.4,0000.0,0002.32,0010.62,0001.13
2022-06-24 21:56:00,,0825.9,5.00,0.00,29.1,28.2,00.0,37.8,31.1,26.4,0000.0,0002.35,0010.47,0001.14
2022-06-24 21:57:00,,0825.9,4.99,0.00,29.2,28.3,00.0,37.9,31.2,26.6,0000.0,0002.31,0009.96,0001.14
2022-06-24 21:58:00,,0826.0,5.01,0.00,29.2,28.4,00.0,37.9,31.2,26.3,0000.0,0002.27,0009.00,0001.12
2022-06-24 21:59:00,,0826.0,5.01,0.00,29.2,28.5,00.0,37.9,31.3,26.4,0000.0,0002.27,0009.22,0001.11
